STARLINK-2169, 47752

Orbit data source: Space-Track

STARLINK-2169, 47752 is a payload satellite owned by SpaceX/Seattle (US) in LEO that was launched on Thu, 04 Mar 2021 UTC via an FALCON 9 launch vehicle from the Air Force Eastern Test Range (AFETR). Payload-class satellites include a variety of spacecraft equipped with specific instruments for various scientific and technological missions. These include communications satellites like Starlink; space stations such as the ISS; scientific satellites like the Hubble; Earth observation satellites from companies like Planet Labs, Umbra, and HawkEye 360; GPS; miniature CubeSats for education and research; and military/defense satellites.

Loading next visibility...
Identifier
47752, 2021-017AG
Orbit
LEO
Country
Flag of USUS
Related business
Manufacturer
SpaceX/Seattle
Mission
Operational Commercial Communications
Bus & Motor
STARLINK, Unknown motor
Mass
260 kg wet, ~248 kg dry
Launch date (UTC)
2021-03-04 (5 years ago)
Launch vehicle
FALCON 9
Launch site
Air Force Eastern Test Range (AFETR)
Object type
Payload
Rocket body
Debris
Shape & HBR
Box + 1 Pan, 10.1 m
Radar Cross Section
13.562 m², Large (>1 m²)

Expand to show TLE details & history
Last TLE update: 9 hours ago

TLE from 9 hours ago
0 STARLINK-2169
1 47752U 21017AG  25347.00245926 -.00001555  00000-0 -85502-4 0  9997
2 47752  53.0554 235.7744 0001504  90.6919 269.4243 15.06391802264787
Epoch: 2025-12-13T00:03Z
TLE epoch observation values (Epoch: 2025-12-13T00:03:32.480Z)
Latitude
0.00005°
Longitude
152.95312°
Altitude
548.127 km
Speed
7.589 km/s
True Right ascension
15h 43m 05s
True Declination
0° 00' 00"
Sunlit
Object was in daylight at epoch
Visualization orbit readout
Latitude
Unknown
Longitude
Unknown
Altitude
Unknown
Speed
Unknown
Apparent Right ascension
Unknown
Apparent Declination
Unknown
Sunlit
N/A
Visualization observer readout
Local Sidereal Time
07:30:58
Azimuth
Unknown
Elevation
Unknown
Doppler factor
Unknown
Orbital elements
Apogee altitude
548.549 km
Perigee altitude
546.466 km
Semi-major axis
6,925.644 km
Eccentricity
0.00015
Inclination
53.0554°
RAAN
235.7744°
Arg. of periapsis
90.6919°
True anomaly
269.40707°
Mean anomaly
269.4243°
Eccentric anomaly
269.41568°
Mean motion
3.76576 °/min
Orbital period
95.6 mins
BSTAR
-0.000085502
Loading maneuver chart data...
Computing Atmospheric mass density...

Documentation

Showing up to 5 results
|